Location: Les Moreaux
(47.2278°N, 1.4966°E)
Time: 18:06:39
(UTC+00:00)

CZ-4C R/B - Pass Details

Date: 15 May 2026
Orbit: 409 x 495 km, 98.0° (Epoch: 10 June)

Event Time Altitude Azimuth Distance (km) Brightness Sun altitude
Rises 23:39:35 0° 29° (NNE) 2,464 7.6 -23.7°
Reaches altitude 10° 23:42:05 10° 49° (NE) 1,605 6.2 -23.7°
Enters shadow 23:43:37 17° 74° (ENE) 1,266 5.3 -23.7°
